contact:dominique.lefevre@mio.osupytheas.fr, maurice.libes@osupytheas.fr, didier.mallarino@osupytheas.fr
Project:EMSO http://www.emso-fr.org/EMSO-France
Depth: 2436.0 m
Title:EMSO Ligure Ouest : Data MII capteur AQUADOPP
Date,Latitude,Longitude,X_East,Y_North,Z_Up,Amplitude_X,Amplitude_Y,Amplitude_Z,Batterie,SoundSpeed,Heading,Pitch,Roll,Pressure,TIS,Speed,Direction
, degrees North, degrees East, m.s-1, m.s-1,m.s-1, 1, 1, 1, Volt, m.s-1, degree, degree, degree, dbar, degree_C, m.s-1, degree
2021-01-06T00:04:03,42.805,6.029,-0.059,0.014,0.034,104.0,111.0,101.0,13.4,1505.2,323.3,-0.7,1.8,2470.493,13.3,0.06,283.3
2021-01-06T00:07:03,42.805,6.029,-0.085,0.023,0.037,104.0,112.0,101.0,13.4,1505.3,325.1,-0.7,1.8,2470.443,13.31,0.088,285.1
2021-01-06T00:10:03,42.805,6.029,-0.064,0.028,0.002,104.0,110.0,102.0,13.4,1505.3,324.5,-0.7,1.8,2470.443,13.31,0.069,293.6
2021-01-06T00:13:03,42.805,6.029,-0.062,0.033,0.043,103.0,112.0,101.0,13.3,1505.3,326.7,-0.7,1.8,2470.482,13.32,0.07,298.0
2021-01-06T00:16:03,42.805,6.029,-0.079,0.024,0.018,105.0,110.0,101.0,13.4,1505.3,322.7,-0.7,1.8,2470.45,13.32,0.082,286.9
2021-01-06T00:19:03,42.805,6.029,-0.067,0.014,0.035,105.0,111.0,101.0,13.3,1505.3,324.9,-0.7,1.8,2470.455,13.32,0.068,281.8
2021-01-06T00:22:03,42.805,6.029,-0.098,0.022,-0.018,104.0,113.0,101.0,13.4,1505.3,327.2,-0.7,1.8,2470.456,13.32,0.1,282.7
2021-01-06T00:25:03,42.805,6.029,-0.054,0.026,-0.005,104.0,110.0,102.0,13.3,1505.3,323.1,-0.7,1.9,2470.43,13.32,0.059,295.7
2021-01-06T00:28:03,42.805,6.029,-0.07,0.025,0.011,105.0,111.0,101.0,13.4,1505.3,324.2,-0.7,1.8,2470.417,13.32,0.074,289.6
2021-01-06T00:31:03,42.805,6.029,-0.068,0.025,0.021,104.0,110.0,102.0,13.3,1505.3,325.0,-0.7,1.8,2470.41,13.32,0.072,290.2
2021-01-06T00:34:03,42.805,6.029,-0.06,0.036,0.016,105.0,109.0,101.0,13.4,1505.3,328.1,-0.7,1.9,2470.395,13.32,0.069,301.0
2021-01-06T00:37:03,42.805,6.029,-0.071,0.039,0.059,103.0,113.0,101.0,13.3,1505.3,323.1,-0.7,1.9,2470.429,13.32,0.081,298.8
2021-01-06T00:40:03,42.805,6.029,-0.058,0.016,0.027,104.0,110.0,101.0,13.3,1505.3,326.5,-0.7,1.8,2470.418,13.32,0.06,285.4
2021-01-06T00:43:03,42.805,6.029,-0.084,0.023,0.0,104.0,109.0,101.0,13.4,1505.3,326.5,-0.7,1.8,2470.42,13.32,0.087,285.3
2021-01-06T00:46:03,42.805,6.029,-0.079,0.022,0.032,104.0,112.0,101.0,13.4,1505.3,325.6,-0.7,1.8,2470.452,13.32,0.082,285.6
2021-01-06T00:49:03,42.805,6.029,-0.079,0.032,0.0,104.0,109.0,101.0,13.3,1505.3,328.2,-0.7,1.8,2470.417,13.32,0.085,292.0
2021-01-06T00:52:03,42.805,6.029,-0.077,0.022,0.002,103.0,109.0,102.0,13.4,1505.3,327.2,-0.7,1.8,2470.393,13.32,0.08,285.9
2021-01-06T00:55:03,42.805,6.029,-0.08,0.021,-0.006,104.0,110.0,102.0,13.3,1505.3,323.0,-0.7,1.8,2470.434,13.32,0.082,284.7
2021-01-06T00:58:03,42.805,6.029,-0.073,0.0,0.016,104.0,110.0,102.0,13.4,1505.3,325.2,-0.7,1.8,2470.397,13.32,0.072,270.0
2021-01-06T01:04:03,42.805,6.029,-0.054,0.027,-0.021,105.0,111.0,102.0,13.4,1505.2,325.4,-0.7,1.8,2470.475,13.3,0.06,296.6
2021-01-06T01:07:03,42.805,6.029,-0.067,0.032,0.011,104.0,113.0,102.0,13.4,1505.3,326.6,-0.7,1.8,2470.472,13.31,0.074,295.5
2021-01-06T01:10:03,42.805,6.029,-0.049,0.036,0.046,107.0,110.0,102.0,13.4,1505.3,322.8,-0.7,1.9,2470.441,13.31,0.06,306.3
2021-01-06T01:13:03,42.805,6.029,-0.051,0.008,0.013,104.0,109.0,101.0,13.4,1505.3,323.1,-0.7,1.8,2470.394,13.32,0.051,278.9
2021-01-06T01:16:03,42.805,6.029,-0.079,0.021,-0.03,104.0,110.0,102.0,13.4,1505.3,323.3,-0.7,1.8,2470.444,13.32,0.081,284.9
2021-01-06T01:19:03,42.805,6.029,-0.082,-0.002,0.012,105.0,112.0,101.0,13.4,1505.3,325.1,-0.7,1.8,2470.418,13.32,0.082,268.6
2021-01-06T01:22:03,42.805,6.029,-0.06,0.024,0.013,104.0,110.0,102.0,13.4,1505.3,326.9,-0.7,1.8,2470.402,13.32,0.064,291.8
2021-01-06T01:25:03,42.805,6.029,-0.029,0.032,0.016,104.0,110.0,102.0,13.3,1505.3,326.2,-0.7,1.8,2470.457,13.32,0.043,317.8
2021-01-06T01:28:03,42.805,6.029,-0.06,0.036,0.04,103.0,113.0,101.0,13.3,1505.3,324.9,-0.7,1.8,2470.433,13.32,0.069,301.0
2021-01-06T01:31:03,42.805,6.029,-0.055,0.0,0.01,104.0,109.0,101.0,13.4,1505.3,326.6,-0.7,1.8,2470.422,13.32,0.055,270.0
2021-01-06T01:34:03,42.805,6.029,-0.047,0.04,0.005,104.0,111.0,101.0,13.3,1505.3,326.3,-0.7,1.8,2470.412,13.32,0.061,310.4
2021-01-06T01:37:03,42.805,6.029,-0.041,0.048,0.051,103.0,113.0,101.0,13.4,1505.3,325.0,-0.7,1.8,2470.384,13.32,0.063,319.5
2021-01-06T01:40:03,42.805,6.029,-0.047,0.007,0.009,106.0,111.0,102.0,13.3,1505.3,327.2,-0.7,1.8,2470.406,13.32,0.047,278.5
2021-01-06T01:43:03,42.805,6.029,-0.042,0.007,-0.009,104.0,107.0,101.0,13.3,1505.3,323.7,-0.7,1.8,2470.416,13.32,0.042,279.5
2021-01-06T01:46:03,42.805,6.029,-0.059,0.031,0.054,104.0,112.0,100.0,13.4,1505.3,325.1,-0.7,1.8,2470.429,13.32,0.066,297.7
2021-01-06T01:49:03,42.805,6.029,-0.049,0.027,0.018,103.0,111.0,101.0,13.4,1505.3,324.5,-0.7,1.9,2470.382,13.32,0.055,298.9
2021-01-06T01:52:03,42.805,6.029,-0.054,0.024,0.004,104.0,110.0,102.0,13.3,1505.3,322.9,-0.7,1.8,2470.387,13.32,0.059,294.0
2021-01-06T01:55:03,42.805,6.029,-0.062,0.013,-0.006,103.0,111.0,101.0,13.4,1505.3,324.8,-0.7,1.8,2470.393,13.32,0.063,281.8
2021-01-06T01:58:03,42.805,6.029,-0.033,-0.003,0.028,104.0,109.0,102.0,13.4,1505.3,328.2,-0.7,1.8,2470.406,13.32,0.033,264.8
2021-01-06T02:04:03,42.805,6.029,-0.055,0.017,0.002,103.0,110.0,101.0,13.4,1505.2,324.2,-0.7,1.8,2470.46,13.3,0.057,287.2
2021-01-06T02:07:03,42.805,6.029,-0.05,0.028,0.033,103.0,111.0,101.0,13.4,1505.3,326.1,-0.7,1.8,2470.413,13.31,0.057,299.3
2021-01-06T02:10:03,42.805,6.029,-0.053,0.015,0.051,105.0,108.0,101.0,13.4,1505.3,323.8,-0.7,1.9,2470.435,13.31,0.055,285.8
2021-01-06T02:13:03,42.805,6.029,-0.074,-0.002,-0.013,103.0,110.0,101.0,13.4,1505.3,324.9,-0.7,1.8,2470.415,13.32,0.074,268.5
2021-01-06T02:16:03,42.805,6.029,-0.072,0.008,0.01,103.0,109.0,102.0,13.4,1505.3,325.4,-0.7,1.9,2470.398,13.32,0.072,276.3
2021-01-06T02:19:03,42.805,6.029,-0.057,0.002,0.007,103.0,112.0,100.0,13.3,1505.3,323.3,-0.7,1.8,2470.437,13.32,0.057,272.0
2021-01-06T02:22:03,42.805,6.029,-0.04,0.022,0.014,104.0,109.0,101.0,13.4,1505.3,325.1,-0.7,1.8,2470.429,13.32,0.045,298.8
2021-01-06T02:25:03,42.805,6.029,-0.056,0.029,0.015,103.0,111.0,102.0,13.4,1505.3,327.6,-0.7,1.8,2470.405,13.32,0.063,297.4
2021-01-06T02:28:03,42.805,6.029,-0.066,0.035,0.002,104.0,109.0,101.0,13.4,1505.3,327.9,-0.7,1.8,2470.41,13.32,0.074,297.9
2021-01-06T02:31:03,42.805,6.029,-0.068,0.042,0.035,104.0,111.0,101.0,13.4,1505.3,324.6,-0.7,1.8,2470.399,13.32,0.079,301.7
2021-01-06T02:34:03,42.805,6.029,-0.027,0.029,0.053,103.0,111.0,101.0,13.4,1505.3,324.7,-0.7,1.8,2470.436,13.32,0.039,317.0
2021-01-06T02:37:03,42.805,6.029,-0.056,0.002,0.018,104.0,109.0,100.0,13.4,1505.3,323.0,-0.7,1.8,2470.391,13.32,0.056,272.0
2021-01-06T02:40:03,42.805,6.029,-0.032,0.01,0.028,105.0,112.0,100.0,13.3,1505.3,324.3,-0.7,1.8,2470.397,13.32,0.033,287.4
2021-01-06T02:43:03,42.805,6.029,-0.043,0.018,0.038,104.0,109.0,100.0,13.4,1505.3,327.5,-0.7,1.9,2470.389,13.32,0.046,292.7
2021-01-06T02:46:03,42.805,6.029,-0.04,0.014,0.013,104.0,107.0,102.0,13.3,1505.3,326.6,-0.7,1.8,2470.361,13.32,0.042,289.3
2021-01-06T02:49:03,42.805,6.029,-0.047,0.024,0.016,103.0,110.0,101.0,13.4,1505.3,327.3,-0.7,1.8,2470.375,13.32,0.052,297.0
2021-01-06T02:52:03,42.805,6.029,-0.045,0.023,0.017,103.0,112.0,101.0,13.4,1505.3,323.3,-0.7,1.8,2470.379,13.32,0.05,297.1
2021-01-06T02:55:03,42.805,6.029,-0.038,0.017,0.025,103.0,109.0,100.0,13.4,1505.3,327.1,-0.7,1.9,2470.424,13.32,0.041,294.1
2021-01-06T02:58:03,42.805,6.029,-0.046,0.028,0.027,102.0,110.0,101.0,13.4,1505.3,324.2,-0.7,1.8,2470.409,13.32,0.053,301.3
2021-01-06T03:04:03,42.805,6.029,-0.059,0.013,0.045,103.0,111.0,100.0,13.4,1505.2,328.2,-0.7,1.8,2470.453,13.3,0.06,282.4
2021-01-06T03:07:03,42.805,6.029,-0.053,0.041,0.008,103.0,107.0,101.0,13.3,1505.3,324.5,-0.7,1.8,2470.402,13.31,0.067,307.7
2021-01-06T03:10:03,42.805,6.029,-0.05,0.01,-0.007,104.0,109.0,100.0,13.3,1505.3,324.0,-0.7,1.8,2470.41,13.31,0.05,281.3
2021-01-06T03:13:03,42.805,6.029,-0.042,0.043,0.043,102.0,109.0,102.0,13.4,1505.3,326.3,-0.7,1.8,2470.383,13.32,0.06,315.7
2021-01-06T03:16:03,42.805,6.029,-0.055,0.006,0.032,103.0,109.0,100.0,13.4,1505.3,322.6,-0.7,1.8,2470.395,13.32,0.055,276.2
2021-01-06T03:19:03,42.805,6.029,-0.033,0.015,0.023,103.0,109.0,101.0,13.4,1505.3,325.6,-0.7,1.8,2470.397,13.32,0.036,294.4
2021-01-06T03:22:03,42.805,6.029,-0.057,0.023,-0.001,103.0,108.0,100.0,13.4,1505.3,326.0,-0.7,1.8,2470.388,13.32,0.061,292.0
2021-01-06T03:25:03,42.805,6.029,-0.045,0.008,-0.003,103.0,109.0,101.0,13.3,1505.3,323.2,-0.7,1.8,2470.369,13.32,0.045,280.1
2021-01-06T03:28:03,42.805,6.029,-0.052,0.034,0.012,102.0,111.0,101.0,13.4,1505.3,324.3,-0.7,1.8,2470.393,13.32,0.062,303.2
2021-01-06T03:31:03,42.805,6.029,-0.08,0.046,0.018,102.0,112.0,101.0,13.4,1505.3,324.8,-0.7,1.8,2470.402,13.32,0.092,299.9
2021-01-06T03:34:03,42.805,6.029,-0.053,0.002,-0.004,102.0,110.0,101.0,13.3,1505.3,328.4,-0.7,1.8,2470.379,13.32,0.053,272.2
2021-01-06T03:37:03,42.805,6.029,-0.063,0.011,-0.008,105.0,109.0,100.0,13.4,1505.3,323.5,-0.7,1.8,2470.412,13.32,0.063,279.9
2021-01-06T03:40:03,42.805,6.029,-0.055,0.019,0.016,102.0,109.0,101.0,13.4,1505.3,323.9,-0.7,1.8,2470.409,13.32,0.058,289.1
2021-01-06T03:43:03,42.805,6.029,-0.059,0.011,-0.01,102.0,112.0,101.0,13.3,1505.3,328.1,-0.7,1.8,2470.411,13.32,0.06,280.6
2021-01-06T03:46:03,42.805,6.029,-0.041,0.008,0.014,102.0,111.0,99.0,13.3,1505.3,322.7,-0.7,1.8,2470.42,13.32,0.041,281.0
2021-01-06T03:49:03,42.805,6.029,-0.066,0.011,0.003,103.0,109.0,101.0,13.3,1505.3,326.7,-0.7,1.8,2470.42,13.32,0.066,279.5
2021-01-06T03:52:03,42.805,6.029,-0.014,0.031,0.041,101.0,110.0,101.0,13.3,1505.3,324.4,-0.7,1.9,2470.393,13.32,0.034,335.7
2021-01-06T03:55:03,42.805,6.029,-0.05,0.017,0.028,103.0,109.0,101.0,13.3,1505.3,327.3,-0.7,1.9,2470.392,13.32,0.052,288.8
2021-01-06T03:58:03,42.805,6.029,-0.074,0.012,0.014,102.0,109.0,100.0,13.4,1505.3,323.5,-0.7,1.8,2470.391,13.32,0.074,279.2
2021-01-06T04:04:03,42.805,6.029,-0.053,-0.003,0.009,104.0,108.0,102.0,13.4,1505.2,325.3,-0.7,1.8,2470.405,13.3,0.053,266.8
2021-01-06T04:07:03,42.805,6.029,-0.054,0.007,0.036,104.0,108.0,100.0,13.4,1505.3,324.6,-0.7,1.8,2470.426,13.31,0.054,277.4
2021-01-06T04:10:03,42.805,6.029,-0.065,0.006,0.009,103.0,107.0,100.0,13.4,1505.3,324.6,-0.7,1.9,2470.389,13.32,0.065,275.3
2021-01-06T04:13:03,42.805,6.029,-0.041,0.018,0.056,103.0,108.0,100.0,13.3,1505.3,326.0,-0.7,1.8,2470.386,13.32,0.044,293.7
2021-01-06T04:16:03,42.805,6.029,-0.062,0.013,0.009,104.0,109.0,101.0,13.4,1505.3,327.5,-0.7,1.8,2470.348,13.32,0.063,281.8
2021-01-06T04:19:03,42.805,6.029,-0.05,-0.005,0.035,104.0,110.0,100.0,13.4,1505.3,324.6,-0.7,1.8,2470.404,13.32,0.05,264.3
2021-01-06T04:22:03,42.805,6.029,-0.045,0.012,0.009,104.0,110.0,101.0,13.3,1505.3,323.5,-0.7,1.8,2470.411,13.32,0.046,284.9
2021-01-06T04:25:03,42.805,6.029,-0.053,0.003,0.035,104.0,108.0,103.0,13.4,1505.3,327.1,-0.7,1.8,2470.377,13.32,0.053,273.2
2021-01-06T04:28:03,42.805,6.029,-0.047,0.007,0.041,103.0,110.0,100.0,13.4,1505.3,323.3,-0.7,1.8,2470.413,13.32,0.047,278.5
2021-01-06T04:31:03,42.805,6.029,-0.035,0.015,0.02,103.0,110.0,100.0,13.3,1505.3,322.9,-0.7,1.8,2470.387,13.32,0.038,293.2
2021-01-06T04:34:03,42.805,6.029,-0.067,0.004,0.04,103.0,110.0,101.0,13.4,1505.3,323.2,-0.7,1.8,2470.384,13.32,0.067,273.4
2021-01-06T04:37:03,42.805,6.029,-0.052,0.031,0.025,104.0,109.0,101.0,13.4,1505.3,327.5,-0.7,1.8,2470.378,13.32,0.06,300.8
2021-01-06T04:40:03,42.805,6.029,-0.053,0.023,-0.008,104.0,110.0,101.0,13.4,1505.3,326.2,-0.7,1.8,2470.39,13.32,0.057,293.5
2021-01-06T04:43:03,42.805,6.029,-0.081,0.022,0.034,104.0,107.0,102.0,13.4,1505.3,325.5,-0.7,1.8,2470.37,13.32,0.083,285.2
2021-01-06T04:46:03,42.805,6.029,-0.046,0.029,-0.002,105.0,110.0,101.0,13.4,1505.3,323.0,-0.7,1.8,2470.385,13.32,0.054,302.2
2021-01-06T04:49:03,42.805,6.029,-0.078,0.004,0.004,104.0,109.0,103.0,13.4,1505.3,324.6,-0.7,1.8,2470.35,13.32,0.078,272.9
2021-01-06T04:52:03,42.805,6.029,-0.067,0.008,0.007,105.0,111.0,102.0,13.4,1505.3,323.3,-0.7,1.8,2470.373,13.32,0.067,276.8
2021-01-06T04:55:03,42.805,6.029,-0.039,0.006,0.002,105.0,109.0,103.0,13.4,1505.3,324.5,-0.7,1.8,2470.333,13.32,0.039,278.7
2021-01-06T04:58:03,42.805,6.029,-0.052,0.033,0.02,106.0,110.0,102.0,13.4,1505.3,326.4,-0.7,1.8,2470.331,13.32,0.061,302.4
2021-01-06T05:04:03,42.805,6.029,-0.048,0.008,0.039,106.0,111.0,102.0,13.3,1505.2,323.0,-0.7,1.8,2470.384,13.3,0.048,279.5
2021-01-06T05:07:03,42.805,6.029,-0.059,0.01,-0.017,107.0,111.0,104.0,13.3,1505.3,327.1,-0.7,1.8,2470.368,13.31,0.059,279.6
2021-01-06T05:10:03,42.805,6.029,-0.057,0.002,-0.002,107.0,110.0,103.0,13.4,1505.3,326.8,-0.7,1.8,2470.405,13.32,0.057,272.0
2021-01-06T05:13:03,42.805,6.029,-0.068,0.005,0.028,108.0,109.0,103.0,13.4,1505.3,325.1,-0.7,1.8,2470.358,13.32,0.068,274.2
2021-01-06T05:16:03,42.805,6.029,-0.065,0.024,-0.008,107.0,111.0,104.0,13.3,1505.3,324.1,-0.7,1.8,2470.356,13.32,0.069,290.3
2021-01-06T05:19:03,42.805,6.029,-0.051,0.002,0.028,106.0,112.0,104.0,13.4,1505.3,324.7,-0.7,1.8,2470.388,13.32,0.051,272.2
2021-01-06T05:22:03,42.805,6.029,-0.058,-0.006,0.014,107.0,113.0,103.0,13.4,1505.3,324.2,-0.7,1.8,2470.388,13.32,0.058,264.1
2021-01-06T05:25:03,42.805,6.029,-0.059,0.014,0.021,107.0,111.0,103.0,13.4,1505.3,326.5,-0.7,1.8,2470.396,13.32,0.06,283.3
2021-01-06T05:28:03,42.805,6.029,-0.05,0.03,-0.005,107.0,109.0,103.0,13.4,1505.3,326.9,-0.7,1.8,2470.342,13.32,0.058,301.0
2021-01-06T05:31:03,42.805,6.029,-0.042,-0.007,0.016,108.0,111.0,105.0,13.4,1505.3,325.3,-0.7,1.8,2470.353,13.32,0.042,260.5
2021-01-06T05:34:03,42.805,6.029,-0.057,0.013,-0.02,107.0,113.0,104.0,13.4,1505.3,326.2,-0.7,1.8,2470.357,13.32,0.058,282.8
2021-01-06T05:37:03,42.805,6.029,-0.037,0.014,-0.005,108.0,111.0,105.0,13.4,1505.3,326.1,-0.7,1.8,2470.356,13.32,0.039,290.7
2021-01-06T05:40:03,42.805,6.029,-0.052,-0.001,0.01,107.0,112.0,104.0,13.4,1505.3,325.4,-0.7,1.9,2470.346,13.32,0.052,268.9
2021-01-06T05:43:03,42.805,6.029,-0.068,0.01,0.0,108.0,111.0,104.0,13.4,1505.3,326.6,-0.7,1.8,2470.357,13.32,0.068,278.4
2021-01-06T05:46:03,42.805,6.029,-0.066,0.015,0.015,109.0,111.0,105.0,13.4,1505.3,326.3,-0.7,1.8,2470.334,13.32,0.067,282.8
2021-01-06T05:49:03,42.805,6.029,-0.059,-0.013,-0.003,108.0,112.0,105.0,13.3,1505.3,323.1,-0.7,1.9,2470.385,13.32,0.06,257.6
2021-01-06T05:52:03,42.805,6.029,-0.043,0.009,0.004,108.0,111.0,105.0,13.4,1505.3,324.3,-0.7,1.8,2470.332,13.32,0.043,281.8
2021-01-06T05:55:03,42.805,6.029,-0.051,0.008,0.019,105.0,113.0,105.0,13.3,1505.3,325.9,-0.7,1.8,2470.342,13.32,0.051,278.9
2021-01-06T05:58:03,42.805,6.029,-0.074,0.014,-0.001,108.0,112.0,103.0,13.4,1505.3,326.5,-0.7,1.8,2470.343,13.32,0.075,280.7
2021-01-06T06:04:03,42.805,6.029,-0.036,0.009,-0.007,108.0,111.0,104.0,13.3,1505.2,325.6,-0.7,1.8,2470.384,13.3,0.037,284.0
2021-01-06T06:07:03,42.805,6.029,-0.075,0.023,0.018,107.0,113.0,105.0,13.4,1505.3,327.9,-0.7,1.8,2470.39,13.31,0.078,287.0
2021-01-06T06:10:03,42.805,6.029,-0.034,-0.001,0.006,107.0,111.0,104.0,13.4,1505.3,323.3,-0.7,1.9,2470.418,13.31,0.034,268.3
2021-01-06T06:13:03,42.805,6.029,-0.06,0.0,-0.002,108.0,112.0,105.0,13.4,1505.3,323.4,-0.7,1.8,2470.384,13.32,0.06,270.0
2021-01-06T06:16:03,42.805,6.029,-0.056,0.012,0.018,107.0,112.0,105.0,13.4,1505.3,326.1,-0.7,1.8,2470.39,13.32,0.057,282.1
2021-01-06T06:19:03,42.805,6.029,-0.053,-0.006,-0.004,108.0,111.0,104.0,13.4,1505.3,327.1,-0.7,1.8,2470.366,13.32,0.053,263.5
2021-01-06T06:22:03,42.805,6.029,-0.063,-0.011,0.023,107.0,112.0,105.0,13.3,1505.3,325.5,-0.7,1.8,2470.336,13.32,0.063,260.1
2021-01-06T06:25:03,42.805,6.029,-0.083,0.006,0.006,107.0,112.0,104.0,13.4,1505.3,323.6,-0.7,1.8,2470.344,13.32,0.083,274.1
2021-01-06T06:28:03,42.805,6.029,-0.056,0.014,-0.028,109.0,112.0,104.0,13.3,1505.3,324.8,-0.7,1.8,2470.346,13.32,0.057,284.0
2021-01-06T06:31:03,42.805,6.029,-0.061,0.032,0.011,108.0,114.0,104.0,13.4,1505.3,326.9,-0.7,1.8,2470.351,13.32,0.068,297.7
2021-01-06T06:34:03,42.805,6.029,-0.078,0.032,-0.021,107.0,110.0,105.0,13.4,1505.3,327.0,-0.7,1.8,2470.353,13.32,0.084,292.3
2021-01-06T06:37:03,42.805,6.029,-0.057,-0.001,-0.029,107.0,112.0,104.0,13.4,1505.3,323.1,-0.7,1.8,2470.339,13.32,0.057,269.0
2021-01-06T06:40:03,42.805,6.029,-0.073,0.023,-0.02,107.0,111.0,104.0,13.4,1505.3,322.8,-0.7,1.8,2470.396,13.32,0.076,287.5
2021-01-06T06:43:03,42.805,6.029,-0.066,-0.002,-0.042,107.0,111.0,104.0,13.3,1505.3,323.2,-0.7,1.8,2470.359,13.33,0.066,268.3
2021-01-06T06:46:03,42.805,6.029,-0.039,0.014,0.001,107.0,112.0,104.0,13.4,1505.3,326.8,-0.7,1.8,2470.374,13.32,0.041,289.7
2021-01-06T06:49:03,42.805,6.029,-0.051,0.011,0.011,108.0,111.0,104.0,13.4,1505.3,325.2,-0.7,1.8,2470.366,13.32,0.052,282.2
2021-01-06T06:52:03,42.805,6.029,-0.049,0.002,-0.011,107.0,111.0,104.0,13.3,1505.3,326.0,-0.7,1.8,2470.369,13.32,0.049,272.3
2021-01-06T06:55:03,42.805,6.029,-0.068,0.021,0.042,107.0,111.0,104.0,13.3,1505.3,326.4,-0.7,1.8,2470.379,13.32,0.071,287.2
2021-01-06T06:58:03,42.805,6.029,-0.053,0.024,0.032,107.0,110.0,106.0,13.3,1505.3,326.7,-0.7,1.8,2470.373,13.32,0.058,294.4
2021-01-06T07:04:03,42.805,6.029,-0.044,0.005,0.02,107.0,111.0,104.0,13.3,1505.2,323.8,-0.7,1.8,2470.433,13.3,0.044,276.5
2021-01-06T07:07:03,42.805,6.029,-0.075,-0.002,0.005,108.0,111.0,104.0,13.4,1505.3,323.5,-0.7,1.9,2470.399,13.31,0.075,268.5
2021-01-06T07:10:03,42.805,6.029,-0.068,0.002,-0.011,109.0,111.0,105.0,13.4,1505.3,325.2,-0.7,1.8,2470.368,13.32,0.068,271.7
2021-01-06T07:13:03,42.805,6.029,-0.055,0.017,0.007,108.0,110.0,105.0,13.4,1505.3,326.8,-0.7,1.9,2470.394,13.32,0.057,287.2
2021-01-06T07:16:03,42.805,6.029,-0.042,-0.009,0.028,108.0,111.0,105.0,13.3,1505.3,324.2,-0.7,1.8,2470.404,13.32,0.042,257.9
2021-01-06T07:19:03,42.805,6.029,-0.039,0.016,-0.001,108.0,112.0,103.0,13.4,1505.3,324.4,-0.7,1.8,2470.39,13.32,0.042,292.3
2021-01-06T07:22:03,42.805,6.029,-0.058,-0.008,0.006,107.0,112.0,104.0,13.4,1505.3,325.1,-0.7,1.8,2470.372,13.32,0.058,262.2
2021-01-06T07:25:03,42.805,6.029,-0.058,0.009,-0.007,108.0,112.0,104.0,13.4,1505.3,325.8,-0.7,1.8,2470.385,13.32,0.058,278.8
2021-01-06T07:28:03,42.805,6.029,-0.057,0.02,0.012,108.0,110.0,103.0,13.3,1505.3,326.7,-0.7,1.8,2470.373,13.32,0.06,289.3
2021-01-06T07:31:03,42.805,6.029,-0.061,0.016,-0.005,107.0,110.0,104.0,13.4,1505.3,324.8,-0.7,1.8,2470.394,13.32,0.063,284.7
2021-01-06T07:34:03,42.805,6.029,-0.058,0.024,-0.005,107.0,110.0,104.0,13.4,1505.3,328.1,-0.7,1.8,2470.353,13.32,0.062,292.5
2021-01-06T07:37:03,42.805,6.029,-0.08,0.01,0.008,107.0,111.0,105.0,13.3,1505.3,326.4,-0.7,1.8,2470.383,13.32,0.08,277.1
2021-01-06T07:40:03,42.805,6.029,-0.062,0.025,0.029,109.0,111.0,105.0,13.4,1505.3,326.5,-0.7,1.8,2470.407,13.32,0.066,292.0
2021-01-06T07:43:03,42.805,6.029,-0.052,-0.008,-0.016,108.0,109.0,104.0,13.4,1505.3,324.4,-0.6,1.8,2470.359,13.33,0.052,261.3
2021-01-06T07:46:03,42.805,6.029,-0.061,0.02,0.001,108.0,112.0,105.0,13.4,1505.3,327.4,-0.7,1.8,2470.376,13.32,0.064,288.1
2021-01-06T07:49:03,42.805,6.029,-0.055,0.01,0.019,107.0,111.0,104.0,13.4,1505.3,324.5,-0.7,1.8,2470.365,13.32,0.055,280.3
2021-01-06T07:52:03,42.805,6.029,-0.078,-0.012,0.001,108.0,111.0,105.0,13.3,1505.3,322.9,-0.7,1.8,2470.387,13.32,0.078,261.3
2021-01-06T07:55:03,42.805,6.029,-0.056,0.02,0.006,107.0,111.0,104.0,13.4,1505.3,326.1,-0.7,1.8,2470.403,13.32,0.059,289.6
2021-01-06T07:58:03,42.805,6.029,-0.064,0.003,0.003,108.0,112.0,104.0,13.4,1505.3,324.5,-0.7,1.9,2470.372,13.32,0.064,272.7
2021-01-06T08:04:03,42.805,6.029,-0.079,0.025,0.0,107.0,111.0,104.0,13.4,1505.2,325.3,-0.7,1.8,2470.445,13.3,0.082,287.6
2021-01-06T08:07:03,42.805,6.029,-0.089,0.029,-0.016,108.0,111.0,103.0,13.4,1505.3,326.4,-0.7,1.8,2470.385,13.31,0.093,288.0
2021-01-06T08:10:03,42.805,6.029,-0.062,0.002,-0.03,108.0,111.0,104.0,13.3,1505.3,326.0,-0.7,1.8,2470.383,13.32,0.062,271.8
2021-01-06T08:13:03,42.805,6.029,-0.058,-0.016,0.0,107.0,112.0,104.0,13.4,1505.3,327.6,-0.7,1.8,2470.389,13.32,0.06,254.6
2021-01-06T08:16:03,42.805,6.029,-0.061,0.029,-0.012,108.0,112.0,104.0,13.4,1505.3,326.6,-0.7,1.8,2470.428,13.32,0.067,295.4
2021-01-06T08:19:03,42.805,6.029,-0.059,-0.004,-0.018,107.0,110.0,104.0,13.4,1505.3,325.1,-0.7,1.8,2470.394,13.32,0.059,266.1
2021-01-06T08:22:03,42.805,6.029,-0.079,0.0,0.011,107.0,111.0,104.0,13.4,1505.3,324.5,-0.7,1.9,2470.381,13.32,0.078,270.0
2021-01-06T08:25:03,42.805,6.029,-0.055,0.006,0.0,107.0,111.0,104.0,13.3,1505.3,324.5,-0.7,1.8,2470.409,13.32,0.055,276.2
2021-01-06T08:28:03,42.805,6.029,-0.056,0.017,-0.003,107.0,110.0,104.0,13.4,1505.3,327.9,-0.7,1.8,2470.373,13.32,0.058,286.9
2021-01-06T08:31:03,42.805,6.029,-0.038,-0.008,0.015,106.0,110.0,105.0,13.4,1505.3,323.4,-0.7,1.8,2470.389,13.32,0.038,258.1
2021-01-06T08:34:03,42.805,6.029,-0.047,-0.003,0.008,107.0,110.0,104.0,13.3,1505.3,324.4,-0.7,1.8,2470.387,13.32,0.047,266.4
2021-01-06T08:37:03,42.805,6.029,-0.058,0.028,-0.026,108.0,111.0,104.0,13.4,1505.3,327.1,-0.7,1.9,2470.394,13.32,0.064,295.8
2021-01-06T08:40:03,42.805,6.029,-0.053,0.0,0.0,109.0,111.0,104.0,13.4,1505.3,323.8,-0.7,1.9,2470.399,13.32,0.053,270.0
2021-01-06T08:43:03,42.805,6.029,-0.036,0.017,0.057,108.0,112.0,104.0,13.4,1505.3,324.6,-0.7,1.9,2470.416,13.32,0.039,295.3
2021-01-06T08:46:03,42.805,6.029,-0.11,0.024,-0.034,109.0,111.0,102.0,13.4,1505.3,328.5,-0.7,1.8,2470.457,13.32,0.112,282.3
2021-01-06T08:49:03,42.805,6.029,-0.029,0.001,-0.026,107.0,110.0,103.0,13.3,1505.3,323.2,-0.7,1.8,2470.405,13.32,0.029,272.0
2021-01-06T08:52:03,42.805,6.029,-0.069,-0.005,-0.018,106.0,111.0,104.0,13.4,1505.3,326.6,-0.7,1.8,2470.423,13.32,0.069,265.9
2021-01-06T08:55:03,42.805,6.029,-0.055,0.01,-0.013,107.0,110.0,103.0,13.3,1505.3,325.8,-0.7,1.8,2470.404,13.32,0.055,280.3
2021-01-06T08:58:03,42.805,6.029,-0.049,-0.01,0.002,107.0,110.0,104.0,13.4,1505.3,324.6,-0.7,1.9,2470.435,13.32,0.05,258.5
2021-01-06T09:04:03,42.805,6.029,-0.086,0.0,-0.004,107.0,113.0,103.0,13.4,1505.2,326.2,-0.7,1.8,2470.45,13.3,0.085,270.0
2021-01-06T09:07:03,42.805,6.029,-0.058,0.028,0.019,107.0,111.0,106.0,13.4,1505.3,324.0,-0.7,1.8,2470.467,13.31,0.064,295.8
2021-01-06T09:10:03,42.805,6.029,-0.063,0.023,0.004,106.0,112.0,103.0,13.4,1505.3,326.8,-0.7,1.9,2470.471,13.31,0.067,290.1
2021-01-06T09:13:03,42.805,6.029,-0.07,0.019,-0.005,107.0,111.0,103.0,13.3,1505.3,325.6,-0.7,1.8,2470.441,13.32,0.072,285.2
2021-01-06T09:16:03,42.805,6.029,-0.055,0.019,0.003,107.0,110.0,103.0,13.3,1505.3,324.4,-0.7,1.8,2470.486,13.32,0.058,289.1
2021-01-06T09:19:03,42.805,6.029,-0.03,0.029,0.028,106.0,110.0,105.0,13.4,1505.3,324.7,-0.7,1.8,2470.445,13.32,0.041,314.0
2021-01-06T09:22:03,42.805,6.029,-0.069,0.001,0.026,108.0,112.0,103.0,13.4,1505.3,327.7,-0.7,1.8,2470.466,13.32,0.069,270.8
2021-01-06T09:25:03,42.805,6.029,-0.069,-0.011,0.0,107.0,112.0,104.0,13.4,1505.3,323.9,-0.7,1.8,2470.432,13.32,0.069,260.9
2021-01-06T09:28:03,42.805,6.029,-0.071,0.0,0.033,106.0,112.0,104.0,13.3,1505.3,323.0,-0.7,1.8,2470.487,13.32,0.07,270.0
2021-01-06T09:31:03,42.805,6.029,-0.065,0.008,-0.023,107.0,112.0,105.0,13.4,1505.3,323.7,-0.7,1.8,2470.469,13.32,0.065,277.0
2021-01-06T09:34:03,42.805,6.029,-0.044,0.016,0.018,108.0,111.0,103.0,13.3,1505.3,326.2,-0.7,1.8,2470.456,13.32,0.046,290.0
2021-01-06T09:37:03,42.805,6.029,-0.078,0.008,-0.02,107.0,112.0,102.0,13.4,1505.3,325.1,-0.7,1.9,2470.429,13.32,0.078,275.9
2021-01-06T09:40:03,42.805,6.029,-0.042,0.002,0.005,105.0,111.0,105.0,13.4,1505.3,326.9,-0.7,1.8,2470.45,13.32,0.042,272.7
2021-01-06T09:43:03,42.805,6.029,-0.071,0.021,0.025,106.0,110.0,102.0,13.4,1505.3,326.1,-0.7,1.8,2470.458,13.32,0.074,286.5
2021-01-06T09:46:03,42.805,6.029,-0.09,0.004,-0.014,107.0,110.0,103.0,13.3,1505.3,325.6,-0.7,1.8,2470.435,13.32,0.09,272.5
2021-01-06T09:49:03,42.805,6.029,-0.048,0.034,-0.009,106.0,111.0,104.0,13.3,1505.3,325.6,-0.7,1.8,2470.464,13.32,0.058,305.3
2021-01-06T09:52:03,42.805,6.029,-0.066,-0.004,-0.026,107.0,110.0,103.0,13.4,1505.3,327.6,-0.7,1.8,2470.457,13.32,0.066,266.5
2021-01-06T09:55:03,42.805,6.029,-0.031,0.028,0.044,107.0,110.0,103.0,13.4,1505.3,328.1,-0.7,1.8,2470.492,13.33,0.041,312.1